Location: Владивосток
(43.1151°N, 131.8856°E)
Time: 07:46:49
(UTC+10:00)

FO-29 - Visible Passes

Search period start: 25 April 2024 00:00
Search period end: 05 May 2024 00:00
Orbit: 800 x 1320 km, 98.6° (Epoch: 24 April)

Date Brightness Start Highest point End Pass type
(mag) Time Alt. Az. Time Alt. Az. Time Alt. Az.
25 Apr 10.7 02:25:59 10° NNE 02:33:23 47° E 02:35:32 39° SE visible
25 Apr 10.7 04:11:10 10° N 04:18:13 42° WNW 04:22:01 26° WSW visible
26 Apr 11.7 01:32:16 10° NE 01:37:43 20° E 01:39:48 18° ESE visible
26 Apr 10.0 03:15:42 10° NNE 03:23:29 87° WNW 03:26:17 46° SSW visible
26 Apr 11.5 05:02:06 10° NNW 05:07:30 21° WNW 05:12:46 11° W visible
27 Apr 10.8 02:20:54 10° NNE 02:28:16 44° E 02:30:34 36° SE visible
27 Apr 10.6 04:05:58 10° N 04:13:10 45° WNW 04:17:03 27° WSW visible
28 Apr 11.8 01:27:20 10° NE 01:32:33 19° E 01:34:50 17° ESE visible
28 Apr 10.0 03:10:33 10° NNE 03:18:24 88° ESE 03:21:18 44° SSW visible
28 Apr 11.4 04:56:49 10° N 05:02:28 23° WNW 05:07:47 11° WSW visible
29 Apr 10.9 02:15:49 10° NNE 02:23:09 41° E 02:25:34 34° SE visible
29 Apr 10.5 04:00:47 10° N 04:08:07 47° WNW 04:12:03 27° WSW visible
30 Apr 11.8 01:22:26 10° NE 01:27:22 18° E 01:29:50 15° ESE visible
30 Apr 10.1 03:05:26 10° NNE 03:13:19 84° ESE 03:16:18 43° S visible
30 Apr 11.4 04:51:34 10° N 04:57:26 24° WNW 05:02:47 12° WSW visible
01 May 11.0 02:10:46 10° NNE 02:18:01 39° E 02:20:34 31° SE visible
01 May 10.5 03:55:36 10° N 04:03:04 50° WNW 04:07:03 28° SW visible
02 May 11.9 01:17:36 10° NE 01:22:10 16° E 01:24:48 14° ESE visible
02 May 10.1 03:00:19 10° NNE 03:08:14 80° ESE 03:11:17 42° S visible
02 May 11.3 04:46:20 10° N 04:52:24 26° WNW 04:57:46 12° WSW visible
03 May 11.1 02:05:44 10° NNE 02:12:53 36° E 02:15:32 29° SE visible
03 May 10.4 03:50:27 10° N 03:58:01 53° WNW 04:02:01 28° SW visible
04 May 12.0 01:12:49 10° NE 01:16:57 15° E 01:19:46 12° ESE visible
04 May 10.1 02:55:13 10° NNE 03:03:08 75° ESE 03:06:15 41° S visible
04 May 11.2 04:41:08 10° N 04:47:22 27° WNW 04:52:44 13° WSW visible
